Language selection

Weather shortcuts

Whitefish Bay: Past 24 Hour Conditions

 

Welcome Island

02:00 AM EDT 24 June 2024
Disclaimer

This table is a summary of hourly weather conditions for the past 24 hours.
Please note that these observations might not always be representative of weather conditions over their associated marine area.

Date / Time
(EDT)
Wind(knots) Conditions Visibility(km) Pressure(kPa) Air tempC) Relative humidity(%) Dew pointC) Humidex
24 June 2024
2:00 W 3 N/A N/A 101.2 16 89 14 *
1:00 WNW 5 N/A N/A 101.2 16 87 14 *
0:00 WNW 6 N/A N/A 101.2 18 82 14 *
23 June 2024
23:00 WNW 11 N/A N/A 101.1 18 75 14 *
22:00 WNW 10 N/A N/A 101.1 20 70 14 *
21:00 WNW 13 N/A N/A 101.0 20 66 14 *
20:00 W 4 N/A N/A 101.0 20 66 14 24
19:00 SW 4 N/A N/A 101.0 20 62 13 23
18:00 WSW 3 N/A N/A 101.0 20 67 14 24
17:00 NW 13 N/A N/A 101.0 17 77 13 *
16:00 NW 21 N/A N/A 101.0 17 82 14 *
15:00 W 8 N/A N/A 101.0 19 68 13 *
14:00 NNW 5 N/A N/A 100.9 18 74 13 *
13:00 ENE 12 N/A N/A 100.9 18 71 13 *
12:00 NW 13 N/A N/A 100.8 19 72 14 *
11:00 WNW 13 N/A N/A 100.8 18 76 14 *
10:00 WNW 12 N/A N/A 100.8 17 76 13 *
9:00 WNW 13 N/A N/A 100.8 16 78 12 *
8:00 WNW 12 N/A N/A 100.7 16 78 12 *
7:00 WNW 12 N/A N/A 100.8 15 81 12 *
6:00 WNW 10 N/A N/A 100.7 15 82 12 *
5:00 WNW 10 N/A N/A 100.7 14 86 12 *
4:00 WNW 12 N/A N/A 100.8 15 84 12 *
3:00 W 6 N/A N/A 100.8 16 78 12 *
2:00 WNW 6 N/A N/A 100.9 16 80 12 *

Zoom-in to make a selection

Map of Great Lakes - Lake Superior marine weather areas Mid Superior - 45001 East Superior - 45004 West Superior - 45006 Slate Island - 45136 Lake Of the Woods - 45148 Kenora Airport Royal Island Armstrong Airport Caribou Island Marathon Airport Pukaskwa National Park Thunder Bay Airport Welcome Island Little Flatland Island Sault Ste. Marie Airport Wawa Airport
Legend:
buoy Buoy
land station Land Station

Great Lakes - Lake Superior Area

Another Region

Features

New Predicting and Alerting Coastal Flooding Program

Find out about coastal flooding coverage, forecasts and warnings in your region

Date modified: